SCP
0 0 0 -0 -0 -0 0 0 0 0 0 0 0 0 0 0 0 0 0 0 0 0 -0 -0 -0 -0 -0 -0 -0 -0 -0 -0 -0 0 0 -0 -0 -0 -0 -0 -0 -0 -0 -0 0 0 0 -0 -0
0 0 0 -0 0 0 0 0 0 0 -0 0 0 0 -0 0 0 -0 0 0 0 0 -0 -0 -0 -0 -0 -0 -0 -0 -0 -0 -0 0 0 0 0 -0 -0 -0 -0 -0 -0 -0 -0 -0 0 0 0
-0 -0 0 -0 0 0 0 0 0 -0 -0 -0 0 -0 0 0 -0 -0 0 0 0 0 -0 -0 -0 -0 -0 -0 -0 -0 -0 -0 -0 -0 -0 0 0 -0 -0 -0 -0 -0 -0 -0 -0 -0 0 0 0
-0 -0 -0 -0 0 0 0 0 0 -0 -0 -0 -0 0 -0 -0 -0 -0 -0 0 0 0 -0 -0 -0 -0 -0 -0 -0 -0 -0 -0 -0 -0 -0 -0 -0 0 -0 0 0 0 0 0 0 0 0 0 0
-0 0 -0 0 0 0 0 0 0 0 0 -0 -0 0 0 0 -0 -0 0 0 0 0 0 0 -0 -0 -0 -0 -0 -0 -0 -0 0 0 0 -0 -0 -0 0 0 0 0 0 0 0 0 0 0 0
0 0 0 0 0 0 0 0 0 0 0 0 0 0 0 0 0 0 0 0 0 0 0 0 0 0 0 -0 -0 -0 -0 0 0 0 0 0 0 -0 0 0 0 0 0 0 0 0 0 0 0
0 0 0 0 0 0 0 0 0 0 0 0 0 0 0 0 0 0 0 0 0 0 0 0 0 0 0 0 0 0 0 0 0 0 0 0 0 0 0 0 0 0 0 0 0 0 0 0 0
0 0 0 0 0 0 0 0 0 0 0 -0 0 0 0 0 0 0 0 0 0 0 0 0 0 0 0 0 0 0 0 0 0 0 0 0 0 0 0 0 0 0 0 0 0 0 0 0 0
0 0 0 0 0 0 0 0 0 0 0 0 0 0 0 0 0 0 0 0 0 0 0 0 0 0 0 0 0 0 0 0 0 0 0 0 0 0 0 0 0 0 0 0 0 0 0 0 0
0 0 0 0 0 0 0 0 0 0 0 0 0 0 0 0 0 0 0 0 0 0 0 0 0 0 0 0 0 0 0 0 0 0 0 0 0 0 0 0 0 0 0 0 0 0 0 0 0
0 0 0 0 0 0 0 0 0 0 0 0 0 0 0 0 0 0 0 0 0 0 0 0 0 0 0 0 0 0 0 0 0 0 0 0 0 0 0 0 0 0 0 0 0 0 0 0 0
0 0 0 0 0 0 0 0 0 0 0 0 0 0 0 0 0 0 0 0 0 0 0 0 0 0 0 0 0 0 0 0 0 0 0 0 0 0 0 0 0 0 0 0 0 0 0 0 0
0 0 0 0 0 0 0 0 0 0 0 0 0 0 0 0 0 0 0 0 0 0 0 0 0 0 0 0 0 0 0 0 0 0 0 0 0 0 0 0 0 0 0 0 0 0 0 0 0
0 0 0 0 0 0 0 0 0 0 0 0 0 0 0 0 0 0 0 0 0 0 0 0 0 0 0 0 0 0 0 0 0 0 0 0 0 0 0 0 0 0 0 0 0 0 0 0 0
0 0 0 0 0 0 0 0 0 0 0 0 0 0 0 0 0 0 0 0 0 0 0 0 0 0 0 0 0 0 0 0 0 0 0 0 0 0 0 0 0 0 0 0 0 0 0 0 0
0 0 0 0 0 0 0 0 0 0 0 0 0 0 0 0 0 0 0 0 0 0 0 0 0 0 0 0 0 0 0 0 0 0 0 0 0 0 0 0 0 0 0 0 0 0 0 0 0
0 0 0 0 0 0 0 0 0 0 0 0 0 0 0 0 0 0 0 0 0 0 0 0 0 0 0 0 0 0 0 0 0 0 0 0 0 0 0 0 0 0 0 0 0 0 0 0 0
0 0 0 0 0 0 0 0 0 0 0 0 0 0 0 0 0 0 0 0 0 0 0 0 0 0 0 0 0 0 0 0 0 0 0 0 0 0 0 0 0 0 0 0 0 0 0 0 0
0 0 0 0 0 0 0 0 0 0 0 0 0 0 0 0 0 0 0 0 0 0 0 0 0 0 0 0 0 0 0 0 0 0 0 0 0 0 0 0 0 0 0 0 0 0 0 0 0
0 0 0 0 0 0 0 0 0 0 0 0 0 0 0 0 0 0 0 0 0 0 0 0 0 0 0 0 0 0 0 0 0 0 0 0 0 0 0 0 0 0 0 0 0 0 0 0 0
0 0 0 0 0 0 0 0 0 0 0 0 0 0 0 0 0 0 0 0 0 0 0 0 0 0 0 0 0 0 0 0 0 0 0 0 0 0 0 0 0 0 0 0 0 0 0 0 0
0 0 0 0 0 0 0 0 0 0 0 0 0 0 0 0 0 0 0 0 0 0 0 0 0 0 0 0 0 0 0 0 0 0 0 0 0 0 0 0 0 0 0 0 0 0 0 0 0
0 0 0 0 0 0 0 0 0 0 0 0 0 0 0 0 0 0 0 0 0 0 0 0 0 0 0 0 0 0 0 0 0 0 0 0 0 0 0 0 0 0 0 0 0 0 0 0 0
0 0 0 0 0 0 0 0 0 0 0 0 0 0 0 0 0 0 0 0 0 0 0 0 0 0 0 0 0 0 0 -0 0 0 0 0 0 0 0 0 0 0 0 0 0 0 0 0 0
0 0 0 0 0 0 0 0 0 0 0 0 0 0 0 0 0 0 0 0 0 0 0 0 0 0 0 0 0 -0 0 0 0 0 0 0 0 0 0 0 0 0 0 0 0 0 0 0 0
0 0 0 0 0 0 0 0 0 0 0 0 0 0 0 0 0 0 0 0 0 0 0 0 0 0 0 0 -0 0 0 0 0 0 0 0 0 0 0 0 0 0 0 0 -0 -0 0 0 0
0 0 0 0 0 0 0 0 0 0 0 0 0 0 0 0 0 0 0 0 0 0 0 0 0 0 0 0 0 0 0 0 0 0 0 0 0 0 0 0 0 0 0 0 0 0 0 0 0
0 0 0 0 0 0 0 0 0 0 0 0 0 0 0 0 0 0 0 0 0 0 0 0 0 0 0 0 0 0 0 0 0 0 0 0 0 0 0 0 0 0 0 0 0 0 0 0 0
0 0 0 0 0 0 0 0 0 0 0 0 0 0 0 0 0 0 0 0 0 0 0 0 0 0 0 0 0 0 0 0 0 0 -0 -0 0 0 0 0 0 0 0 0 0 0 0 0 0
0 0 0 0 0 0 0 0 0 0 0 0 0 0 0 0 0 0 0 0 0 0 0 0 0 0 0 0 0 0 0 0 0 0 0 0 0 0 0 0 0 0 0 0 0 0 0 0 0
Wind_Speed_500mb
5 3 4 5 7 8 2 2 2 1 2 2 3 3 4 4 6 4 8 4 5 17 36 39 36 29 27 24 25 21 17 14 10 8 9 7 4 5 5 6 6 6 7 10 12 13 13 11 9
8 6 6 6 9 7 5 5 4 5 2 1 5 4 4 1 1 3 6 3 7 16 30 36 34 31 28 26 24 21 17 14 11 8 5 4 6 8 11 22 19 8 8 11 14 15 14 13 10
7 6 3 8 6 7 5 6 4 3 2 3 5 3 4 2 5 4 6 6 7 13 23 30 31 30 27 24 23 21 18 14 11 9 6 7 5 4 20 24 28 16 11 12 14 15 15 14 13
7 3 11 8 5 4 4 4 5 3 2 4 5 6 2 2 3 3 5 8 8 10 17 26 28 28 26 24 22 20 18 14 12 10 8 9 7 10 15 23 25 17 9 10 12 14 13 12 11
6 6 8 7 3 3 6 5 1 2 0 3 3 0 3 5 3 6 9 11 9 8 13 24 27 27 26 25 23 22 20 17 15 12 11 12 11 12 15 25 24 9 5 7 10 11 9 8 7
6 6 8 4 5 5 7 4 2 2 3 2 3 4 7 9 9 7 7 8 7 6 8 15 26 27 25 25 25 24 22 20 18 15 14 14 14 13 18 22 23 13 6 7 11 11 10 8 7
11 7 8 8 3 6 3 5 6 4 2 3 3 2 6 14 5 2 4 7 4 4 5 9 18 26 28 25 24 24 23 22 20 17 16 16 16 15 17 13 18 20 14 14 15 12 11 8 6
7 11 6 5 6 6 1 3 5 4 1 2 3 3 3 15 7 7 7 8 8 7 7 8 14 22 28 30 28 24 25 22 21 19 18 20 19 18 19 8 18 24 24 16 17 15 12 10 7
5 8 3 8 12 5 0 5 4 6 4 2 6 9 7 3 5 8 10 11 12 12 11 12 14 18 23 28 28 27 24 23 22 21 20 21 22 16 17 18 22 18 23 23 20 16 12 11 10
7 7 12 9 8 6 2 1 7 4 5 3 2 9 15 17 12 11 15 16 17 19 19 18 19 18 21 23 26 28 25 26 26 24 23 21 21 17 22 22 22 22 26 27 24 21 16 14 13
6 8 6 3 11 7 4 6 4 2 4 4 7 15 6 5 5 4 7 12 18 23 26 28 26 23 21 22 21 23 27 26 24 22 23 22 20 22 22 22 23 24 25 27 30 24 21 18 17
1 4 8 4 6 3 4 4 6 11 4 4 12 7 8 7 4 5 4 8 12 16 19 27 33 29 23 21 19 18 22 24 19 21 25 22 21 22 21 24 21 25 27 28 30 31 23 20 19
5 4 7 11 18 20 17 16 10 10 9 10 14 14 9 7 6 6 8 13 16 19 22 25 33 33 27 23 20 14 11 14 17 22 25 14 19 18 21 22 22 26 24 28 32 27 26 22 20
8 6 17 18 18 16 10 1 10 9 19 19 12 9 8 7 9 10 8 11 12 14 16 18 30 36 31 27 21 16 12 12 15 24 22 21 17 18 20 22 21 11 21 28 22 22 21 19 20
2 7 13 11 8 9 10 5 3 15 17 14 9 8 6 7 8 10 13 11 9 7 2 10 28 34 35 34 31 23 16 12 11 9 13 13 16 17 18 18 23 20 24 27 21 24 22 24 28
4 8 6 4 6 0 8 5 5 11 7 9 9 8 7 8 8 9 9 11 12 11 8 15 29 37 38 36 32 26 20 14 10 7 9 10 11 9 4 7 8 13 12 20 26 26 26 28 33
9 6 8 14 5 4 4 7 14 11 12 15 12 11 10 11 11 13 15 16 18 21 22 26 32 38 37 36 32 26 20 14 11 8 4 3 5 8 9 12 12 17 24 29 31 32 35 37 39
13 9 8 10 4 4 6 15 8 17 17 18 18 18 17 17 19 20 21 24 27 32 35 38 40 43 43 38 34 28 20 15 12 7 4 4 8 15 18 21 24 26 28 29 31 33 36 38 39
11 9 11 8 6 8 15 12 2 12 19 22 23 26 27 28 29 27 27 29 34 36 38 41 44 48 40 38 30 24 17 12 11 14 10 7 7 3 2 4 8 10 14 17 19 23 24 24 32
6 7 11 8 8 7 12 17 2 9 4 12 28 31 36 41 41 42 41 41 42 43 42 40 38 35 32 30 37 36 38 39 37 34 29 27 23 19 16 14 13 13 12 14 19 25 28 29 34
10 12 10 13 3 6 3 10 9 6 13 19 25 32 38 43 47 49 52 55 56 56 57 56 54 53 52 48 46 44 41 41 35 32 28 28 26 25 24 24 23 23 24 27 30 31 35 36 32
12 17 14 11 8 8 2 10 7 8 9 12 25 32 37 40 44 48 50 52 55 56 54 53 52 51 48 43 38 33 32 29 33 30 29 25 24 24 24 25 26 28 28 28 33 36 37 37 41
10 12 15 8 7 3 5 3 7 11 13 16 28 36 37 40 43 47 51 52 52 50 47 46 44 43 39 33 28 26 29 33 29 25 21 22 22 24 26 28 29 30 32 33 33 35 37 39 40
17 12 11 7 6 5 21 18 8 12 13 21 32 44 46 45 45 46 48 49 46 41 37 34 32 34 31 27 29 28 29 28 22 21 21 22 23 25 28 32 35 38 39 41 43 43 44 43 42
6 12 1 2 2 12 2 8 15 11 9 34 50 62 58 53 51 50 47 45 42 37 31 27 25 28 26 24 25 26 26 24 25 27 29 30 34 37 40 42 44 46 48 50 50 50 51 53 55
15 14 9 14 9 5 4 12 10 2 7 30 62 70 62 56 53 50 46 43 39 33 27 22 20 21 20 18 21 22 22 23 23 24 25 27 30 33 36 39 44 49 54 61 67 70 71 71 69
13 11 8 11 4 5 9 8 2 6 6 38 50 62 65 60 56 51 46 42 39 33 27 20 15 16 15 14 13 11 11 11 14 17 20 24 28 32 36 42 48 52 57 62 66 68 70 74 79
8 16 5 3 4 9 7 8 10 15 21 23 40 59 73 66 59 54 49 45 40 32 27 22 17 13 8 7 11 15 17 18 19 23 28 33 36 43 50 55 60 66 71 77 81 86 86 85 79
7 7 5 8 9 10 3 10 8 16 30 38 51 65 83 79 69 60 52 47 41 36 30 24 18 9 2 7 13 17 19 23 29 35 40 42 47 52 56 62 66 71 77 81 85 86 88 88 89
5 15 14 11 9 4 4 11 2 7 31 47 56 73 86 83 73 62 54 52 46 40 35 26 18 8 5 7 15 22 26 30 35 41 44 47 51 55 60 64 70 77 83 86 85 84 83 85 87
Wind_Direction_500mb
5 32 108 115 63 65 54 146 277 263 284 197 135 144 146 138 155 174 0 126 87 165 181 183 184 183 180 177 175 174 170 171 167 157 140 141 108 358 8 358 343 354 15 20 21 20 16 19 24
33 76 90 97 82 68 292 265 198 211 205 112 134 114 81 52 64 28 32 91 81 155 177 186 187 187 185 186 186 192 196 191 189 184 161 130 68 31 39 7 355 334 349 4 16 9 11 8 6
48 53 76 88 106 146 172 230 249 267 142 144 130 98 115 96 55 70 32 114 91 154 172 187 190 190 190 189 194 197 197 196 195 196 185 167 143 329 335 343 344 343 352 7 11 6 8 15 11
32 63 61 77 111 196 163 309 228 337 81 60 104 108 131 125 95 67 68 108 98 139 171 188 194 194 195 193 195 197 199 203 203 203 206 209 248 301 325 336 338 335 353 9 9 5 11 23 22
36 68 60 81 273 253 259 288 298 85 76 47 44 72 88 53 96 113 110 106 99 131 169 189 197 201 200 196 199 199 203 207 210 219 227 234 265 297 322 334 338 351 360 6 2 6 11 23 43
62 69 66 162 256 280 274 321 187 95 33 19 78 17 82 67 92 115 125 120 107 132 167 191 200 207 209 198 198 206 208 212 216 222 230 243 265 287 318 342 5 357 15 11 3 3 2 13 29
102 76 167 161 236 310 212 346 153 138 28 56 9 58 110 69 48 142 182 191 171 153 176 193 207 213 215 214 208 209 217 216 223 227 236 250 262 283 310 347 18 22 11 5 2 0 355 357 0
94 93 117 215 190 209 257 123 118 76 183 356 1 54 34 339 314 236 228 223 214 195 196 206 211 217 220 223 218 217 217 227 232 236 242 254 267 284 301 332 356 6 16 5 359 352 346 330 326
93 64 161 205 165 205 128 71 172 304 235 27 62 5 324 261 183 220 224 225 219 218 218 227 228 224 223 225 226 218 220 223 232 237 245 256 265 274 290 304 319 343 355 360 357 349 328 313 306
88 108 214 192 200 184 303 136 320 271 323 243 91 350 275 272 269 239 227 222 222 225 231 229 227 231 227 223 226 224 218 227 233 239 246 257 269 268 273 284 307 333 342 345 340 346 330 307 299
131 173 199 220 223 243 187 287 235 273 300 166 298 319 291 227 243 256 241 239 241 241 235 236 228 220 225 221 222 224 224 230 237 242 241 254 263 263 266 285 297 311 327 333 333 324 326 313 297
78 239 212 241 190 226 235 226 256 229 220 262 306 148 121 112 78 38 346 301 280 268 251 237 228 214 209 214 213 216 230 230 236 244 249 256 267 268 282 280 297 300 309 313 319 317 315 305 299
162 263 247 264 266 272 264 240 254 296 264 182 140 134 111 72 37 13 343 325 304 286 271 245 220 206 192 194 197 197 205 223 225 231 247 258 268 281 279 285 294 298 295 304 307 314 311 302 297
180 254 278 281 263 257 230 119 170 120 140 141 138 94 57 33 24 11 348 325 305 293 271 243 204 192 181 180 181 178 177 188 194 211 221 237 250 260 271 283 283 281 304 306 315 315 309 297 294
134 311 319 261 257 225 178 106 109 147 165 124 101 89 66 41 28 3 353 356 360 350 327 191 178 178 172 171 179 176 156 154 169 201 210 218 236 239 252 256 259 306 308 302 311 317 320 319 308
73 45 346 280 161 238 170 229 22 157 229 117 113 110 96 81 61 50 47 47 47 52 91 139 157 163 166 168 164 159 152 162 180 193 200 220 88 150 112 323 298 285 288 317 306 299 298 305 310
5 222 215 315 215 103 176 230 180 27 177 130 121 111 101 90 88 91 88 89 89 87 101 120 138 146 155 151 154 155 155 167 171 142 157 218 299 329 338 328 318 312 303 298 294 296 299 303 306
194 205 224 230 186 165 192 257 128 36 144 129 121 114 109 104 94 100 103 105 108 107 108 113 119 126 129 135 137 139 154 140 111 90 61 22 321 308 303 295 290 292 294 294 296 296 298 307 310
143 180 193 234 243 179 229 242 28 102 117 131 125 123 116 108 104 109 113 115 116 117 116 115 117 115 121 125 132 141 154 141 133 112 106 99 93 113 267 311 313 315 320 325 317 319 316 321 321
156 168 232 280 228 172 254 254 339 27 86 151 143 132 124 117 116 112 113 116 119 118 117 119 114 117 116 120 114 115 112 105 98 93 92 84 77 72 65 56 45 32 15 354 342 339 339 342 342
206 188 205 222 358 235 322 252 206 56 109 138 143 137 131 126 120 116 113 109 110 112 113 113 111 110 106 103 104 106 103 101 99 88 79 68 58 51 43 35 27 19 11 6 2 355 351 346 346
224 204 180 183 139 234 125 283 236 168 150 156 155 151 141 134 126 121 116 114 110 107 107 106 105 102 100 102 105 105 98 89 79 70 64 56 47 38 29 21 13 6 2 354 352 348 345 340 338
235 145 162 144 171 88 219 283 243 140 204 190 179 165 153 144 136 130 124 116 111 110 110 109 110 108 108 109 101 92 83 78 76 69 55 44 34 24 15 9 5 358 354 350 342 336 334 333 330
146 83 62 67 113 248 209 188 228 191 196 172 180 173 163 156 148 138 130 125 122 116 112 111 108 103 98 92 86 78 76 78 68 57 39 32 22 14 6 359 355 351 345 341 338 335 331 327 322
155 123 90 324 224 230 67 180 254 185 177 174 174 177 171 166 158 150 143 137 130 126 120 113 104 101 94 84 76 67 59 50 36 26 17 7 360 354 350 347 343 341 338 335 330 327 324 320 316
184 167 172 205 200 230 112 226 253 4 245 183 176 175 172 170 166 160 154 147 142 136 131 124 117 105 97 82 66 50 36 21 12 3 354 347 342 339 336 333 331 327 326 323 322 321 319 316 313
181 197 159 108 35 58 217 272 227 96 55 155 167 175 178 176 173 169 164 159 155 151 145 141 134 117 101 77 60 41 13 351 339 334 331 333 331 327 329 330 327 326 325 322 320 316 312 308 307
174 154 102 16 188 253 264 263 237 199 183 170 173 180 184 182 180 178 174 170 166 163 163 161 161 141 126 67 17 358 344 334 329 332 335 339 335 334 333 330 327 327 325 323 321 318 314 311 307
149 173 86 137 163 188 235 251 215 197 179 183 186 186 187 186 186 184 182 178 175 174 175 175 183 158 109 4 349 350 349 343 342 339 334 331 329 327 324 323 323 322 320 319 317 313 311 309 308
195 189 167 170 209 217 151 259 352 234 177 177 185 191 194 192 189 187 189 186 181 184 188 184 192 193 246 337 350 347 337 330 327 324 322 321 320 319 318 318 318 318 318 317 315 312 309 307 305
Wind_Speed_850mb
5 3 4 5 7 8 2 2 2 1 2 2 3 3 4 4 6 4 8 4 5 17 36 39 36 29 27 24 25 21 17 14 10 8 9 7 4 5 5 6 6 6 7 10 12 13 13 11 9
8 6 6 6 9 7 5 5 4 5 2 1 5 4 4 1 1 3 6 3 7 16 30 36 34 31 28 26 24 21 17 14 11 8 5 4 6 8 11 22 19 8 8 11 14 15 14 13 10
7 6 3 8 6 7 5 6 4 3 2 3 5 3 4 2 5 4 6 6 7 13 23 30 31 30 27 24 23 21 18 14 11 9 6 7 5 4 20 24 28 16 11 12 14 15 15 14 13
7 3 11 8 5 4 4 4 5 3 2 4 5 6 2 2 3 3 5 8 8 10 17 26 28 28 26 24 22 20 18 14 12 10 8 9 7 10 15 23 25 17 9 10 12 14 13 12 11
6 6 8 7 3 3 6 5 1 2 0 3 3 0 3 5 3 6 9 11 9 8 13 24 27 27 26 25 23 22 20 17 15 12 11 12 11 12 15 25 24 9 5 7 10 11 9 8 7
6 6 8 4 5 5 7 4 2 2 3 2 3 4 7 9 9 7 7 8 7 6 8 15 26 27 25 25 25 24 22 20 18 15 14 14 14 13 18 22 23 13 6 7 11 11 10 8 7
11 7 8 8 3 6 3 5 6 4 2 3 3 2 6 14 5 2 4 7 4 4 5 9 18 26 28 25 24 24 23 22 20 17 16 16 16 15 17 13 18 20 14 14 15 12 11 8 6
7 11 6 5 6 6 1 3 5 4 1 2 3 3 3 15 7 7 7 8 8 7 7 8 14 22 28 30 28 24 25 22 21 19 18 20 19 18 19 8 18 24 24 16 17 15 12 10 7
5 8 3 8 12 5 0 5 4 6 4 2 6 9 7 3 5 8 10 11 12 12 11 12 14 18 23 28 28 27 24 23 22 21 20 21 22 16 17 18 22 18 23 23 20 16 12 11 10
7 7 12 9 8 6 2 1 7 4 5 3 2 9 15 17 12 11 15 16 17 19 19 18 19 18 21 23 26 28 25 26 26 24 23 21 21 17 22 22 22 22 26 27 24 21 16 14 13
6 8 6 3 11 7 4 6 4 2 4 4 7 15 6 5 5 4 7 12 18 23 26 28 26 23 21 22 21 23 27 26 24 22 23 22 20 22 22 22 23 24 25 27 30 24 21 18 17
1 4 8 4 6 3 4 4 6 11 4 4 12 7 8 7 4 5 4 8 12 16 19 27 33 29 23 21 19 18 22 24 19 21 25 22 21 22 21 24 21 25 27 28 30 31 23 20 19
5 4 7 11 18 20 17 16 10 10 9 10 14 14 9 7 6 6 8 13 16 19 22 25 33 33 27 23 20 14 11 14 17 22 25 14 19 18 21 22 22 26 24 28 32 27 26 22 20
8 6 17 18 18 16 10 1 10 9 19 19 12 9 8 7 9 10 8 11 12 14 16 18 30 36 31 27 21 16 12 12 15 24 22 21 17 18 20 22 21 11 21 28 22 22 21 19 20
2 7 13 11 8 9 10 5 3 15 17 14 9 8 6 7 8 10 13 11 9 7 2 10 28 34 35 34 31 23 16 12 11 9 13 13 16 17 18 18 23 20 24 27 21 24 22 24 28
4 8 6 4 6 0 8 5 5 11 7 9 9 8 7 8 8 9 9 11 12 11 8 15 29 37 38 36 32 26 20 14 10 7 9 10 11 9 4 7 8 13 12 20 26 26 26 28 33
9 6 8 14 5 4 4 7 14 11 12 15 12 11 10 11 11 13 15 16 18 21 22 26 32 38 37 36 32 26 20 14 11 8 4 3 5 8 9 12 12 17 24 29 31 32 35 37 39
13 9 8 10 4 4 6 15 8 17 17 18 18 18 17 17 19 20 21 24 27 32 35 38 40 43 43 38 34 28 20 15 12 7 4 4 8 15 18 21 24 26 28 29 31 33 36 38 39
11 9 11 8 6 8 15 12 2 12 19 22 23 26 27 28 29 27 27 29 34 36 38 41 44 48 40 38 30 24 17 12 11 14 10 7 7 3 2 4 8 10 14 17 19 23 24 24 32
6 7 11 8 8 7 12 17 2 9 4 12 28 31 36 41 41 42 41 41 42 43 42 40 38 35 32 30 37 36 38 39 37 34 29 27 23 19 16 14 13 13 12 14 19 25 28 29 34
10 12 10 13 3 6 3 10 9 6 13 19 25 32 38 43 47 49 52 55 56 56 57 56 54 53 52 48 46 44 41 41 35 32 28 28 26 25 24 24 23 23 24 27 30 31 35 36 32
12 17 14 11 8 8 2 10 7 8 9 12 25 32 37 40 44 48 50 52 55 56 54 53 52 51 48 43 38 33 32 29 33 30 29 25 24 24 24 25 26 28 28 28 33 36 37 37 41
10 12 15 8 7 3 5 3 7 11 13 16 28 36 37 40 43 47 51 52 52 50 47 46 44 43 39 33 28 26 29 33 29 25 21 22 22 24 26 28 29 30 32 33 33 35 37 39 40
17 12 11 7 6 5 21 18 8 12 13 21 32 44 46 45 45 46 48 49 46 41 37 34 32 34 31 27 29 28 29 28 22 21 21 22 23 25 28 32 35 38 39 41 43 43 44 43 42
6 12 1 2 2 12 2 8 15 11 9 34 50 62 58 53 51 50 47 45 42 37 31 27 25 28 26 24 25 26 26 24 25 27 29 30 34 37 40 42 44 46 48 50 50 50 51 53 55
15 14 9 14 9 5 4 12 10 2 7 30 62 70 62 56 53 50 46 43 39 33 27 22 20 21 20 18 21 22 22 23 23 24 25 27 30 33 36 39 44 49 54 61 67 70 71 71 69
13 11 8 11 4 5 9 8 2 6 6 38 50 62 65 60 56 51 46 42 39 33 27 20 15 16 15 14 13 11 11 11 14 17 20 24 28 32 36 42 48 52 57 62 66 68 70 74 79
8 16 5 3 4 9 7 8 10 15 21 23 40 59 73 66 59 54 49 45 40 32 27 22 17 13 8 7 11 15 17 18 19 23 28 33 36 43 50 55 60 66 71 77 81 86 86 85 79
7 7 5 8 9 10 3 10 8 16 30 38 51 65 83 79 69 60 52 47 41 36 30 24 18 9 2 7 13 17 19 23 29 35 40 42 47 52 56 62 66 71 77 81 85 86 88 88 89
5 15 14 11 9 4 4 11 2 7 31 47 56 73 86 83 73 62 54 52 46 40 35 26 18 8 5 7 15 22 26 30 35 41 44 47 51 55 60 64 70 77 83 86 85 84 83 85 87
Wind_Direction_850mb
5 32 108 115 63 65 54 146 277 263 284 197 135 144 146 138 155 174 0 126 87 165 181 183 184 183 180 177 175 174 170 171 167 157 140 141 108 358 8 358 343 354 15 20 21 20 16 19 24
33 76 90 97 82 68 292 265 198 211 205 112 134 114 81 52 64 28 32 91 81 155 177 186 187 187 185 186 186 192 196 191 189 184 161 130 68 31 39 7 355 334 349 4 16 9 11 8 6
48 53 76 88 106 146 172 230 249 267 142 144 130 98 115 96 55 70 32 114 91 154 172 187 190 190 190 189 194 197 197 196 195 196 185 167 143 329 335 343 344 343 352 7 11 6 8 15 11
32 63 61 77 111 196 163 309 228 337 81 60 104 108 131 125 95 67 68 108 98 139 171 188 194 194 195 193 195 197 199 203 203 203 206 209 248 301 325 336 338 335 353 9 9 5 11 23 22
36 68 60 81 273 253 259 288 298 85 76 47 44 72 88 53 96 113 110 106 99 131 169 189 197 201 200 196 199 199 203 207 210 219 227 234 265 297 322 334 338 351 360 6 2 6 11 23 43
62 69 66 162 256 280 274 321 187 95 33 19 78 17 82 67 92 115 125 120 107 132 167 191 200 207 209 198 198 206 208 212 216 222 230 243 265 287 318 342 5 357 15 11 3 3 2 13 29
102 76 167 161 236 310 212 346 153 138 28 56 9 58 110 69 48 142 182 191 171 153 176 193 207 213 215 214 208 209 217 216 223 227 236 250 262 283 310 347 18 22 11 5 2 0 355 357 0
94 93 117 215 190 209 257 123 118 76 183 356 1 54 34 339 314 236 228 223 214 195 196 206 211 217 220 223 218 217 217 227 232 236 242 254 267 284 301 332 356 6 16 5 359 352 346 330 326
93 64 161 205 165 205 128 71 172 304 235 27 62 5 324 261 183 220 224 225 219 218 218 227 228 224 223 225 226 218 220 223 232 237 245 256 265 274 290 304 319 343 355 360 357 349 328 313 306
88 108 214 192 200 184 303 136 320 271 323 243 91 350 275 272 269 239 227 222 222 225 231 229 227 231 227 223 226 224 218 227 233 239 246 257 269 268 273 284 307 333 342 345 340 346 330 307 299
131 173 199 220 223 243 187 287 235 273 300 166 298 319 291 227 243 256 241 239 241 241 235 236 228 220 225 221 222 224 224 230 237 242 241 254 263 263 266 285 297 311 327 333 333 324 326 313 297
78 239 212 241 190 226 235 226 256 229 220 262 306 148 121 112 78 38 346 301 280 268 251 237 228 214 209 214 213 216 230 230 236 244 249 256 267 268 282 280 297 300 309 313 319 317 315 305 299
162 263 247 264 266 272 264 240 254 296 264 182 140 134 111 72 37 13 343 325 304 286 271 245 220 206 192 194 197 197 205 223 225 231 247 258 268 281 279 285 294 298 295 304 307 314 311 302 297
180 254 278 281 263 257 230 119 170 120 140 141 138 94 57 33 24 11 348 325 305 293 271 243 204 192 181 180 181 178 177 188 194 211 221 237 250 260 271 283 283 281 304 306 315 315 309 297 294
134 311 319 261 257 225 178 106 109 147 165 124 101 89 66 41 28 3 353 356 360 350 327 191 178 178 172 171 179 176 156 154 169 201 210 218 236 239 252 256 259 306 308 302 311 317 320 319 308
73 45 346 280 161 238 170 229 22 157 229 117 113 110 96 81 61 50 47 47 47 52 91 139 157 163 166 168 164 159 152 162 180 193 200 220 88 150 112 323 298 285 288 317 306 299 298 305 310
5 222 215 315 215 103 176 230 180 27 177 130 121 111 101 90 88 91 88 89 89 87 101 120 138 146 155 151 154 155 155 167 171 142 157 218 299 329 338 328 318 312 303 298 294 296 299 303 306
194 205 224 230 186 165 192 257 128 36 144 129 121 114 109 104 94 100 103 105 108 107 108 113 119 126 129 135 137 139 154 140 111 90 61 22 321 308 303 295 290 292 294 294 296 296 298 307 310
143 180 193 234 243 179 229 242 28 102 117 131 125 123 116 108 104 109 113 115 116 117 116 115 117 115 121 125 132 141 154 141 133 112 106 99 93 113 267 311 313 315 320 325 317 319 316 321 321
156 168 232 280 228 172 254 254 339 27 86 151 143 132 124 117 116 112 113 116 119 118 117 119 114 117 116 120 114 115 112 105 98 93 92 84 77 72 65 56 45 32 15 354 342 339 339 342 342
206 188 205 222 358 235 322 252 206 56 109 138 143 137 131 126 120 116 113 109 110 112 113 113 111 110 106 103 104 106 103 101 99 88 79 68 58 51 43 35 27 19 11 6 2 355 351 346 346
224 204 180 183 139 234 125 283 236 168 150 156 155 151 141 134 126 121 116 114 110 107 107 106 105 102 100 102 105 105 98 89 79 70 64 56 47 38 29 21 13 6 2 354 352 348 345 340 338
235 145 162 144 171 88 219 283 243 140 204 190 179 165 153 144 136 130 124 116 111 110 110 109 110 108 108 109 101 92 83 78 76 69 55 44 34 24 15 9 5 358 354 350 342 336 334 333 330
146 83 62 67 113 248 209 188 228 191 196 172 180 173 163 156 148 138 130 125 122 116 112 111 108 103 98 92 86 78 76 78 68 57 39 32 22 14 6 359 355 351 345 341 338 335 331 327 322
155 123 90 324 224 230 67 180 254 185 177 174 174 177 171 166 158 150 143 137 130 126 120 113 104 101 94 84 76 67 59 50 36 26 17 7 360 354 350 347 343 341 338 335 330 327 324 320 316
184 167 172 205 200 230 112 226 253 4 245 183 176 175 172 170 166 160 154 147 142 136 131 124 117 105 97 82 66 50 36 21 12 3 354 347 342 339 336 333 331 327 326 323 322 321 319 316 313
181 197 159 108 35 58 217 272 227 96 55 155 167 175 178 176 173 169 164 159 155 151 145 141 134 117 101 77 60 41 13 351 339 334 331 333 331 327 329 330 327 326 325 322 320 316 312 308 307
174 154 102 16 188 253 264 263 237 199 183 170 173 180 184 182 180 178 174 170 166 163 163 161 161 141 126 67 17 358 344 334 329 332 335 339 335 334 333 330 327 327 325 323 321 318 314 311 307
149 173 86 137 163 188 235 251 215 197 179 183 186 186 187 186 186 184 182 178 175 174 175 175 183 158 109 4 349 350 349 343 342 339 334 331 329 327 324 323 323 322 320 319 317 313 311 309 308
195 189 167 170 209 217 151 259 352 234 177 177 185 191 194 192 189 187 189 186 181 184 188 184 192 193 246 337 350 347 337 330 327 324 322 321 320 319 318 318 318 318 318 317 315 312 309 307 305